User: anonymous
Location: Unspecified
(0.0000°N, 0.0000°E)
Time: 08:44:01
(UTC+00:00)
Language:

ELEKTRO-L - Orbit

View from above orbital plane
View from above orbital plane
View from above satellite
View from above satellite

Ground track
Ground track

The orbit data is extracted from the following two-line orbital elements,

1 37344U 11001A   14293.09926488 -.00000104  00000-0  00000+0 0  1200
2 37344 000.4803 080.5078 0000787 176.2774 243.4090 01.00269281 13771
Epoch (UTC): 20 October 2014 02:22:56
Eccentricity: 0.0000787
inclination: 0.4803°
perigee height: 35783 km
apogee height: 35790 km
right ascension of ascending node: 80.5078°
argument of perigee: 176.2774°
revolutions per day: 1.00269281
mean anomaly at epoch: 243.4090°
orbit number at epoch: 1377

The dashed part of the orbit path shows where the satellite is in the earth's shadow,  

DLR